Zurück zum Katalog

NEE 02 KRYSAOR

AktivWissenschaftSSO
NORAD 39441·PAYLOAD·🇪🇨 Ecuador

Gestartet Nov 21, 2013 von Dombarovsky

Loading…

Nächste Überflüge (nächste 24 Stunden)

TLE

AktuellSource: Space-Track

Epoche: Sep 13, 2026, 18:38 UTC

1 39441U 13066AB  26256.77674065  .00001265  00000-0  14231-3 0  9998
2 39441  97.8935 195.3964 0066599 138.0762 222.5580 14.86903520689367

Verfolge NEE 02 KRYSAOR in Echtzeit mit AllMySat

Download on the App Store